www.pogodaiklimat.ru

Погода и климат >> Архив погоды >> Канада >> Dauphin Airport


ПОГОДА в Dauphin Airport

  • Прогноз погоды в Dauphin Airport
  • Монитор погоды в Dauphin Airport
  • Климат города

АРХИВ ПОГОДЫ в Dauphin Airport

Время (UTC), дата Ветер
(напр.,м/с)
 
Видим.   Явления Облачность Т
(С)
Тd
(С)
f
(%)
Тe
(С)
Тes
(С)
Комфортность P
(гПа)
Po
(гПа)
Тmin
(С)
Tmax
(С)
R
(мм)
R24
(мм)
S
(см)
03 8.08 З 4 16 км ясно +20.0 +19 +19 1006.7 970.7
06 8.08 З 5 16 км ясно +18.1 +18 +18 1007.4 971.5 +16.3 +31.1 201
09 8.08 З 4 16 км ясно +16.9 +17 +17 1007.5 971.6
12 8.08 З 5 16 км ясно +16.5 +16 +16 1008.8 972.8 +16.4 +31.1
15 8.08 З 3 16 км ясно +22.4 +19 +25 1010.8 974.7
18 8.08 С 6 16 км ясно +27.0 +22 +29 комфорт 1010.7 974.7 +16.4 +27.0
21 8.08 СЗ 4 16 км ясно +28.3 +23 +31 комфорт 1011.1 975.1
00 9.08 СВ 3 16 км ясно +26.2 +22 +24 комфорт 1011.8 975.7 +16.4 +28.4
03 9.08 Ю 2 16 км ясно +19.3 +19 +19 1012.9 976.7
06 9.08 З 2 14 км ясно +15.2 +16 +16 1013.6 977.4 +15.0 +28.4 18
09 9.08 ЮЗ 4 12 км ясно +16.6 +16 +16 1014.0 977.8
12 9.08 ЮЗ 4 11 км ясно +16.3 +16 +16 1015.0 978.7 +14.6 +28.4
15 9.08 З 5 11 км ясно +22.1 +19 +23 1015.9 979.6
18 9.08 З 5 9000 м дым ясно +27.7 +23 +30 комфорт 1015.6 979.3 +14.6 +27.7
21 9.08 З 3 11 км ясно +28.9 +24 +33 комфорт 1014.8 978.6
00 10.08 З 4 14 км ясно +28.0 +23 +25 комфорт 1014.3 978.1 +14.6 +29.6
03 10.08 ЮЗ 3 12 км ясно +19.9 +19 +19 1014.6 978.3
06 10.08 ЮЗ 4 12 км ясно +19.5 +19 +19 1014.3 978.2 +14.6 +29.6
09 10.08 З 4 14 км ясно +16.8 +17 +17 1014.0 977.9
12 10.08 З 4 14 км ясно +17.1 +17 +17 1014.0 977.9 +15.3 +29.6
15 10.08 З 4 12 км ясно +23.4 +19 +24 1014.7 978.5
18 10.08 З 6 11 км ясно +28.4 +23 +30 комфорт 1014.5 978.4 +15.3 +28.4
21 10.08 З 3 11 км ясно +31.7 +26 +36 жарко 1013.5 977.5
00 11.08 Ю 2 11 км ясно +29.4 +24 +26 комфорт 1012.7 976.6 +15.3 +31.8
03 11.08 ЮВ 2 9000 м дым ясно +20.9 +20 +20 1013.0 976.9
06 11.08 ЮВ 1 9000 м дым ясно +17.5 +19 +19 1012.6 976.5 +15.3 +31.8 17
09 11.08 З 1 12 км ясно +17.6 +19 +19 1011.8 975.9
12 11.08 ЮЗ 5 14 км ясно +24.0 +20 +20 1011.0 975.2 +15.5 +31.8
15 11.08 ЮЗ 8 14 км ясно +28.8 +24 +25 комфорт 1009.9 974.0
18 11.08 ЮЗ 6 16 км ясно +32.7 +27 +33 жарко 1008.8 973.0 +15.5 +32.8
21 11.08 З 5 16 км ясно +34.6 +29 +35 жарко 1008.4 972.7
00 12.08 СВ 4 16 км ясно +29.3 +24 +26 комфорт 1009.5 973.7 +15.5 +35.9
03 12.08 СВ 3 12 км ясно +23.2 +19 +19 1012.2 976.3
06 12.08 С 2 8000 м дым ясно +20.1 +19 +19 1012.6 976.7 +15.5 +35.9 151
09 12.08 ЮЗ 1 4000 м ясно +15.7 +17 +17 1013.2 977.2
12 12.08 СЗ 2 4800 м дымка ясно +14.3 +14.3 100 +14 +14 1013.2 977.0 +13.8 +35.9
15 12.08 СВ 6 16 км ясно +21.1 +19 +21 1013.0 976.9
18 12.08 В 6 16 км ясно +24.3 +20 +26 1011.5 975.4 +13.8 +24.4
21 12.08 В 6 16 км ясно +25.9 +22 +25 комфорт 1009.5 973.4
00 13.08 С 7 16 км 10/10 1000 м
[]
+23.4 +19 +19 1010.5 974.3 +13.8 +26.2
03 13.08 СВ 7 16 км 10/10 1000 м
[]
+18.9 +18.9 100 +20 +20 1010.1 973.9
06 13.08 В 4 16 км 5/5 600 м
[]
+16.2 +16.2 100 +15 +15 1006.6 970.6 +13.8 +26.2 21
09 13.08 С 6 16 км 10/10 300 м
[]
+15.7 +15.7 100 +14 +14 1009.3 973.2
12 13.08 СЗ 4 16 км 10/10 300 м
[]
+15.3 +15.3 100 +14 +14 1010.1 973.9 +15.1 +26.2
15 13.08 З 6 16 км 10/10 600 м
[]
+17.3 +17 +17 1011.4 975.1
18 13.08 СЗ 7 16 км 10/10 1000 м
[]
+18.7 +18 +18 1012.7 976.3 +15.1 +19.7
21 13.08 СЗ 6 16 км 10/10 1000 м
[]
+18.1 +18.1 100 +18 +18 1014.7 978.2
00 14.08 СЗ 5 16 км 10/10 1000 м
[]
+16.9 +16.9 100 +16 +16 1016.3 979.7 +15.1 +19.9
03 14.08 С 5 16 км 10/10 1000 м
[]
+13.1 +13.1 100 +11 +11 1018.3 981.5
06 14.08 СЗ 4 16 км 9/9 600 м
[]
+10.6 +10.6 100 +8 +8 1019.2 982.4 +10.3 +19.9 181
09 14.08 З 3 16 км 10/10 600 м
[]
+8.9 +8.9 100 +6 +6 1019.4 982.5
12 14.08 З 3 16 км 10/10 600 м
[]
+8.8 +8.8 100 +6 +6 1019.9 982.9 +7.2 +19.9
15 14.08 З 4 16 км 10/10 600 м
[]
+11.2 +11.2 100 +9 +9 1019.9 982.9
18 14.08 СЗ 2 16 км 5/5 1000 м
[]
+15.7 +16 +24 1018.3 981.4 +7.2 +16.2
21 14.08 ЮВ 3 16 км 5/5 1500 м
[]
+18.9 +19 +23 1016.2 979.4
00 15.08 Ю 2 16 км ясно +20.1 +19 +21 1014.7 978.0 +7.2 +20.7

 

Местоположение метеостанции Dauphin Airport (Канада): широта 51.10 долгота -100.05 высота над уровнем моря 305 м.

В архиве по умолчанию представлена погода в Dauphin Airport за последнюю неделю. Архивные данные за месяц целиком и за предыдущие месяцы, начиная с января 2011 года, Вы можете получить, выбрав интересующий диапазон дат из раскрывающегося списка и нажав кнопку "Ввод!".


*Определитесь, кто Вы:
робот инопланетянин человек

Внимание! Время в таблицах - всемирное. Для получения местного времени необходимо прибавить поправку, которая в Dauphin Airport равна -8 ч.

Смотрите также архив погоды в соседних городах и на ближайших метеорологических станциях:

Погода в Dauphin Cs (Канада) (3 км)
Погода в Wasagaming (Канада) (51 км)
Погода в Wilson Creek Weir Cs (Канада) (56 км)
Погода в Shoal Lake Cs (Канада) (82 км)
Погода в Roblin (Канада) (88 км)
Погода в Gypsumville (Канада) (110 км)
Погода в Brandon (Канада) (131 км)
Погода в Vanscoy Upper-Air (Канада) (134 км)
Погода в Swan River (Канада) (138 км)
Погода в Carberry Cs (Канада) (142 км)

Пояснения к столбцам:

Ветер - указаны скорость ветра в м/с - средняя за 10 мин, порывы в срок и между сроками (в фигурных скобках) и направление, откуда дует ветер: С - северный, СВ - северо-восточный, В - восточный, ЮВ - юго-восточный, Ю - южный, ЮЗ - юго-западный, З - западный, СЗ - северо-западный.
Видимость - горизонтальная дальность видимости в метрах или километрах. При видимости от 1 до 10 км при отсутствии осадков обычно наблюдается дымка, при ухудшении видимости до 1 км и менее - туман. В сухую погоду видимость может ухудшаться дымом, пылью или мглою.
Явления - указаны атмосферные явления, наблюдавшиеся в срок или в последний час перед сроком; фигурными скобками обозначены явления, наблюдавшиеся между сроками (за 1-3 часа до срока); квадратными скобками обозначены град или гололедные отложения с указанием их диаметра в мм.
Облачность - указаны через наклонную черту общая и нижняя облачность в баллах и высота нижней границы облаков в метрах; квадратными скобками обозначены формы облаков: Ci - перистые, Cs - перисто-слоистые, Cc - перисто-кучевые, Ac - высококучевые, As - высокослоистые, Sc - слоисто-кучевые, Ns - слоисто-дождевые, Cu - кучевые, Cb - кучево-дождевые. Подробнее классификацию облаков см. в Атласе облаков (PDF).
T - Температура воздуха - температура, измеренная на высоте 2 м над землей.
Td - Температура точки росы - температура, при понижении до которой содержащийся в воздухе водяной пар достигнет насыщения.
f - Относительная влажность воздуха - влажноcть воздуха, измеренная на высоте 2 м над землей.
Te - Эффективная температура - температура, которую ощущает одетый по сезону человек в тени. Характеристика душности погоды. При расчете учитывается влияние влажности воздуха и скорости ветра на теплоощущения человека.
Tes - Эффективная температура на солнце - температура, которую ощущает человек, с поправкой на солнечный нагрев. Характеристика знойности погоды. Зависит от высоты солнца над горизонтом, облачности и скорости ветра. Ночью, в пасмурную погоду, а также при ветре 12 м/с и более поправка равна нулю.
P - Атмосферное давление - приведенное к уровню моря атмосферное давление.
Po - Атмосферное давление - измеренное на уровне метеостанции атмосферное давление.
Tmin - Минимальная температура - минимум температуры воздуха на высоте 2 м над землей.
Tmax - Максимальная температура - максимум температуры воздуха на высоте 2 м над землей.
R - Количество осадков - Количество выпавших осадков за период времени, мм. При наведении курсора мыши на число - период времени, за который выпало указанное количество осадков.
R24 - Количество осадков - Количество выпавших осадков за 24 часа, мм.
S - Снежный покров - Высота снежного покрова, см. При наведении курсора мыши на число - состояние снежного покрова и степень покрытия местности в баллах.